www.pogodaiklimat.ru

Погода и климат >> Архив погоды >> Намибия >> Людериц


ПОГОДА в Людерице

  • Прогноз погоды в Людерице
  • Монитор погоды в Людерице

АРХИВ ПОГОДЫ в Людерице

Время (UTC), дата Ветер
(напр.,м/с)
 
Видим.   Явления Облачность Т
(С)
Тd
(С)
f
(%)
Тe
(С)
Тes
(С)
Комфортность P
(гПа)
Po
(гПа)
Тmin
(С)
Tmax
(С)
R
(мм)
R24
(мм)
S
(см)
09 19.06 ЮЗ 3 н/о н/о +26.9 +3.0 21 +25 +25 комфорт 1021.1 1006.5 +15.8 +26.9
12 19.06 штиль 0 н/о н/о +34.9 +3.9 14 +32 +32 жарко 1018.6 1004.4 +15.8 +35.2
15 19.06 Ю 5 н/о н/о +29.2 +3.5 19 +27 +27 жарко 1018.1 1003.7 +29.2 +35.2
18 19.06 Ю 2 н/о н/о +24.2 +2.6 24 +23 +23 комфорт 1019.6 1004.9 +24.1 +35.2
21 19.06 ЮВ 4 н/о н/о +23.2 +2.3 25 +23 +23 комфорт 1020.2 1005.4 +22.3 +35.2
00 20.06 В 5 н/о н/о +22.8 +2.5 26 +22 +22 комфорт 1019.3 1004.5 +22.2 +35.2
03 20.06 СВ 2 н/о н/о +20.2 +1.2 28 +21 +21 комфорт 1018.4 1003.5 +18.5 +35.2
06 20.06 ЮЗ 1 н/о н/о +19.4 +0.5 28 +21 +21 комфорт 1018.3 1003.4 +16.8
09 20.06 СВ 9 н/о н/о +29.9 -0.1 14 +27 +27 жарко 1018.9 1004.5 +16.8 +29.9
18 20.06 ЮЗ 1 н/о н/о +22.2 -0.9 21 +21 +21 комфорт 1018.4 1003.6 +22.1 +33.3
21 20.06 В 2 н/о н/о +19.7 -1.2 24 +20 +20 1019.3 1004.4 +19.2 +33.3
00 21.06 С 1 н/о н/о +19.0 -0.7 26 +20 +20 1018.9 1004.0 +17.7 +33.3
03 21.06 В 3 н/о н/о +17.2 0.0 31 +17 +17 1018.8 1003.8 +16.2 +33.3
06 21.06 В 4 н/о н/о +15.9 -1.0 31 +15 +15 1019.4 1004.3 +15.8
09 21.06 СВ 2 н/о н/о +26.4 -0.3 17 +24 +24 комфорт 1020.1 1005.5 +15.8 +26.6
12 21.06 ЮЗ 8 н/о н/о +24.4 +3.9 26 +24 +24 комфорт 1020.3 1005.6 +15.8 +27.6
21 21.06 Ю 6 н/о н/о +15.2 +9.6 69 +14 +14 1023.5 1008.3 +15.2 +27.6
00 22.06 Ю 7 н/о н/о +13.7 +10.5 81 +11 +11 1023.3 1008.0 +13.7 +27.6
03 22.06 Ю 6 н/о н/о +11.7 +9.7 88 +9 +9 1022.0 1006.6 +11.7 +27.6
06 22.06 Ю 5 н/о н/о +11.8 +8.8 82 +9 +9 1022.5 1007.1 +11.0
09 22.06 Ю 9 н/о н/о +18.4 +7.0 47 +18 +18 1021.8 1006.8 +11.0 +18.7
12 22.06 Ю 9 н/о н/о +22.9 +6.4 34 +23 +23 комфорт 1017.7 1003.0 +11.0 +24.8
15 22.06 Ю 9 н/о н/о +19.9 +8.4 47 +20 +20 1016.5 1001.6 +19.8 +24.8
21 22.06 Ю 3 н/о н/о +13.8 +5.5 57 +13 +13 1017.5 1002.3 +12.7 +24.8
00 23.06 ЮЗ 4 н/о н/о +11.2 +7.9 80 +9 +9 1017.3 1002.0 +11.2 +24.8
03 23.06 ЮЗ 2 н/о н/о +10.0 +5.0 71 +9 +9 1016.6 1001.2 +9.4 +24.8
06 23.06 ЮЗ 1 н/о н/о +10.3 +3.3 62 +10 +10 1016.7 1001.3 +8.8
09 23.06 СВ 9 н/о н/о +26.2 +3.0 22 +25 +25 комфорт 1016.3 1001.7 +8.8 +26.2
12 23.06 З 3 н/о н/о +29.6 +3.1 18 +27 +27 жарко 1014.0 999.6 +8.8 +30.1
18 23.06 СВ 1 н/о н/о +17.8 +4.8 42 +19 +19 1015.7 1000.7 +17.8 +30.1
21 23.06 В 2 н/о н/о +15.7 +2.2 40 +16 +16 1016.3 1001.2 +15.6 +30.1
00 24.06 В 1 н/о н/о +12.3 +0.7 45 +13 +13 1016.6 1001.3 +12.3 +30.1
03 24.06 штиль 0 н/о н/о +10.9 -0.5 45 +11 +11 1015.0 999.7 +10.9 +30.1
12 24.06 ЮЗ 4 н/о н/о +17.9 +9.3 57 +18 +18 1015.7 1000.7 +10.0 +22.7
15 24.06 С 1 н/о н/о +20.7 +9.4 48 +23 +23 комфорт 1015.1 1000.3 +17.9 +22.7
18 24.06 С 2 н/о н/о +11.1 +9.8 92 +10 +10 1017.1 1001.8 +10.6 +22.7
21 24.06 СВ 2 н/о н/о +9.6 +9.3 98 +8 +8 1017.8 1002.4 +9.6 +22.7
00 25.06 Ю 1 н/о н/о +9.6 +9.4 99 +9 +9 1018.3 1002.9 +9.1 +22.7
03 25.06 ЮВ 2 н/о н/о +9.1 +9.1 100 +8 +8 1017.9 1002.4 +9.0 +22.7
06 25.06 ЮЗ 3 н/о н/о +8.1 +8.1 100 +5 +5 1018.5 1003.0 +7.7
09 25.06 Ю 5 н/о н/о +13.9 +9.7 76 +12 +12 1020.0 1004.8 +7.7 +14.0
18 25.06 Ю 6 н/о н/о +13.0 +10.5 85 +11 +11 1018.7 1003.4 +13.0 +20.5
21 25.06 Ю 2 н/о н/о +11.7 +8.5 81 +11 +11 1018.6 1003.3 +11.7 +20.5
00 26.06 ЮВ 1 н/о н/о +11.2 +6.7 74 +11 +11 1018.9 1003.5 +10.3 +20.5
03 26.06 ЮВ 2 н/о н/о +9.9 +6.0 77 +9 +9 1018.2 1002.8 +8.4 +20.5
06 26.06 В 3 н/о н/о +6.8 +3.4 79 +4 +4 1018.4 1002.8 +6.8

 

Местоположение метеостанции Людериц (Намибия): широта -26.63 долгота 15.10 высота над уровнем моря 23 м.

В архиве по умолчанию представлена погода в Людерице за последнюю неделю. Архивные данные за месяц целиком и за предыдущие месяцы, начиная с января 2011 года, Вы можете получить, выбрав интересующий диапазон дат из раскрывающегося списка и нажав кнопку "Ввод!".


*Определитесь, кто Вы:
робот инопланетянин человек

Внимание! Время в таблицах - всемирное. Для получения местного времени необходимо прибавить поправку, которая равна 2 ч.

Смотрите также архив погоды в соседних городах и на ближайших метеорологических станциях:

Погода в Александер-Бее (Южная Африка) (257 км)
Погода в Китмансхупе (Намибия) (301 км)
Погода в Виулсдрифе (Южная Африка) (337 км)
Погода в Порт Ноллоз (Южная Африка) (337 км)
Погода в Аэропорту Walvis Bay (Намибия) (409 км)
Погода в Аэропорту Eros (Намибия) (423 км)
Погода в Спрингбоке (Южная Африка) (435 км)
Погода в Коингнаасе (Южная Африка) (451 км)
Погода в Виндхуке (Намибия) (496 км)
Погода в Пофаддере (Южная Африка) (504 км)

Пояснения к столбцам:

Ветер - указаны скорость ветра в м/с - средняя за 10 мин, порывы в срок и между сроками (в фигурных скобках) и направление, откуда дует ветер: С - северный, СВ - северо-восточный, В - восточный, ЮВ - юго-восточный, Ю - южный, ЮЗ - юго-западный, З - западный, СЗ - северо-западный.
Видимость - горизонтальная дальность видимости в метрах или километрах. При видимости от 1 до 10 км при отсутствии осадков обычно наблюдается дымка, при ухудшении видимости до 1 км и менее - туман. В сухую погоду видимость может ухудшаться дымом, пылью или мглою.
Явления - указаны атмосферные явления, наблюдавшиеся в срок или в последний час перед сроком; фигурными скобками обозначены явления, наблюдавшиеся между сроками (за 1-3 часа до срока); квадратными скобками обозначены град или гололедные отложения с указанием их диаметра в мм.
Облачность - указаны через наклонную черту общая и нижняя облачность в баллах и высота нижней границы облаков в метрах; квадратными скобками обозначены формы облаков: Ci - перистые, Cs - перисто-слоистые, Cc - перисто-кучевые, Ac - высококучевые, As - высокослоистые, Sc - слоисто-кучевые, Ns - слоисто-дождевые, Cu - кучевые, Cb - кучево-дождевые. Подробнее классификацию облаков см. в Атласе облаков (PDF).
T - Температура воздуха - температура, измеренная на высоте 2 м над землей.
Td - Температура точки росы - температура, при понижении до которой содержащийся в воздухе водяной пар достигнет насыщения.
f - Относительная влажность воздуха - влажноcть воздуха, измеренная на высоте 2 м над землей.
Te - Эффективная температура - температура, которую ощущает одетый по сезону человек в тени. Характеристика душности погоды. При расчете учитывается влияние влажности воздуха и скорости ветра на теплоощущения человека.
Tes - Эффективная температура на солнце - температура, которую ощущает человек, с поправкой на солнечный нагрев. Характеристика знойности погоды. Зависит от высоты солнца над горизонтом, облачности и скорости ветра. Ночью, в пасмурную погоду, а также при ветре 12 м/с и более поправка равна нулю.
P - Атмосферное давление - приведенное к уровню моря атмосферное давление.
Po - Атмосферное давление - измеренное на уровне метеостанции атмосферное давление.
Tmin - Минимальная температура - минимум температуры воздуха на высоте 2 м над землей.
Tmax - Максимальная температура - максимум температуры воздуха на высоте 2 м над землей.
R - Количество осадков - Количество выпавших осадков за период времени, мм. При наведении курсора мыши на число - период времени, за который выпало указанное количество осадков.
R24 - Количество осадков - Количество выпавших осадков за 24 часа, мм.
S - Снежный покров - Высота снежного покрова, см. При наведении курсора мыши на число - состояние снежного покрова и степень покрытия местности в баллах.